#timestamp,LO_Frequency,Hit 
1504771215.5,286047002.0,N
1504771235.4,286047002.4,N
1504771255.2,286047002.7,N
1504771275.0,286046999.4,N
1504771275.9,286046999.4,N
1504771295.8,286046998.2,N
1504771315.6,286047000.0,N
1504771335.4,286047003.8,N
1504771355.3,286047001.4,N
1504771375.1,286047002.4,N
1504771376.0,286047002.4,N
1504771395.8,286047005.1,N
1504771415.7,286047005.2,N
1504771435.5,286047006.0,N
1504771455.3,286047002.9,N
1504771475.2,286047004.6,N
1504771495.9,286047006.0,N
1504771515.7,286047005.4,N
1504771535.5,286047002.9,N
1504771555.4,286047005.1,N
1504771575.2,286047004.8,N
1504771595.0,286047005.9,N
1504771595.9,286047005.9,N
1504771615.8,286047006.6,N
1504771635.6,286047004.7,N
1504771655.4,286047005.3,N
1504771675.3,286047009.2,P
1504771695.1,286047003.6,N
1504771715.8,286046999.5,N
1504771735.7,286046997.7,N
1504771755.5,286046995.3,N
1504771775.3,286046996.7,N
1504771795.2,286046999.9,N
1504771815.9,286046999.8,N
1504771835.7,286047000.9,N
1504771855.6,286047001.3,N
1504771875.4,286047001.7,N
1504771895.2,286047000.8,N
1504771915.1,286047002.8,N
1504771916.0,286047002.8,N
1504771935.8,286046998.9,N
1504771955.6,286046996.5,N
1504771975.4,286046995.8,N
1504771995.3,286046997.3,N
1504772015.1,286046995.1,N
1504772035.8,286046998.1,N
1504772055.7,286046997.4,N
1504772075.5,286046995.0,N
1504772095.3,286046997.6,N
1504772115.2,286046995.5,N
1504772135.9,286046996.2,N
1504772155.7,286046993.8,N
1504772175.6,286046992.4,N
1504772195.4,286046992.8,N
1504772215.2,286046993.0,N
1504772235.1,286046997.7,N
1504772236.0,286046997.7,N
1504772255.8,286046997.7,N
1504772275.6,286046995.8,N
1504772295.5,286046993.6,N
1504772315.3,286046995.3,N
1504772335.1,286047000.9,N
1504772355.8,286046999.4,N
1504772375.7,286046993.5,N
1504772395.5,286046996.2,N
1504772415.3,286046996.1,N
1504772435.2,286046993.3,N
1504772455.0,286046996.8,N
1504772455.9,286046996.8,N
1504772475.7,286047001.8,N
1504772495.6,286047001.1,N
1504772515.4,286046999.6,N
1504772535.2,286046996.2,N
1504772555.1,286046997.3,N
1504772556.0,286046997.3,N
1504772575.8,286046997.1,N
1504772595.6,286046994.0,N
1504772615.5,286046990.4,P
1504772635.3,286046994.0,N
1504772655.1,286046993.6,N
1504772675.9,286046993.3,P
1504772695.7,286047003.1,P
1504772715.5,286047005.5,N
1504772735.4,286047005.1,N
1504772755.2,286047002.9,N
1504772775.0,286047002.1,N
1504772775.9,286047002.1,N
1504772795.8,286047001.5,N
1504772815.6,286047005.6,N
1504772835.4,286047005.5,N
1504772855.3,286047002.5,N
1504772875.1,286047002.9,N
1504772876.0,286047002.9,N
1504772895.8,286047000.6,N
1504772915.7,286047000.9,N
1504772935.5,286047000.3,N
1504772955.3,286046999.4,N
1504772975.2,286046999.0,N
1504772995.9,286046997.7,N
1504773015.7,286046996.7,N
1504773035.5,286046996.2,N
1504773055.4,286046997.4,N
1504773075.2,286047001.6,N
1504773095.0,286047000.0,N
1504773095.9,286047000.0,N
1504773115.8,286046996.4,N
1504773135.6,286046996.0,N
1504773155.4,286046995.0,N
1504773175.3,286046992.4,N
1504773195.1,286046993.8,N
1504773196.0,286046993.8,N
1504773215.8,286046995.3,N
1504773235.7,286046996.9,N
1504773255.5,286046997.1,N
1504773275.3,286046995.7,N
1504773295.2,286046999.2,N
1504773315.9,286046996.8,N
1504773335.7,286046999.2,N
1504773355.6,286046996.4,N
1504773375.4,286046997.9,N
1504773395.2,286046997.1,N
1504773415.0,286047000.7,N
1504773416.0,286047000.7,N
1504773435.8,286046999.1,N
1504773455.6,286046995.2,N
1504773475.4,286046997.9,N
1504773495.3,286046996.2,N
1504773515.1,286046997.0,N
1504773535.8,286046998.9,N
1504773555.7,286047000.9,N
1504773575.5,286047000.3,N
1504773595.3,286046999.0,N
1504773615.2,286046998.5,N
1504773635.9,286046996.4,N
1504773655.7,286046993.5,P
1504773675.6,286047001.5,N
1504773695.4,286047004.1,N
1504773715.2,286047005.9,N
1504773735.1,286047003.7,N
1504773736.0,286047003.7,N
1504773755.8,286047003.3,N
1504773775.6,286047001.7,N
1504773795.5,286046996.6,N
1504773815.3,286047001.1,N
1504773835.1,286047000.7,N
1504773855.9,286046996.7,N
1504773875.7,286046998.3,N
1504773895.5,286046996.6,N
1504773915.4,286046996.8,N
1504773935.2,286047005.8,N
1504773955.0,286047005.2,N
1504773955.9,286047005.2,N
1504773975.7,286047009.2,N
1504773995.6,286047007.5,N
1504774015.4,286047002.5,N
1504774035.2,286047000.9,N
1504774055.1,286046997.4,N
1504774056.0,286046997.4,N
1504774075.8,286046995.6,N
1504774095.6,286046995.6,N
1504774115.5,286046995.0,N
1504774135.3,286046998.5,N
1504774155.1,286046999.5,N
1504774175.9,286047000.0,N
1504774195.7,286047000.6,N
1504774215.5,286047004.0,N
1504774235.4,286047000.2,N
1504774255.2,286047000.1,N
1504774275.0,286047001.8,N
1504774275.9,286047001.8,N
1504774295.8,286047003.3,N
1504774315.6,286047008.0,N
1504774335.4,286047008.6,N
1504774355.3,286047004.9,N
1504774375.1,286047006.0,N
1504774376.0,286047006.0,N
1504774395.8,286047003.8,N
1504774415.6,286047002.3,N
1504774435.5,286047002.8,N
1504774455.3,286046996.3,N
1504774475.1,286046993.8,N
1504774495.9,286046996.7,N
1504774515.7,286047000.0,N
1504774535.5,286046998.9,N
1504774555.4,286047000.2,N
1504774575.2,286046999.8,N
1504774595.0,286047000.1,N
1504774595.9,286047000.1,N
1504774615.8,286047000.6,N
1504774635.6,286047000.5,N
1504774655.4,286047002.3,N
1504774675.3,286047001.8,N
1504774695.1,286047004.2,N
1504774696.0,286047004.2,N
1504774715.8,286047001.5,N
1504774735.7,286046999.7,N
1504774755.5,286047002.4,N
1504774775.3,286046999.8,N
1504774795.2,286047005.3,N
